Location: Rottenacker
(48.2350°N, 9.6886°E)
Time: 09:36:41
(UTC+01:00)

OTV 5 (USA 277) - Visible Passes

Search period start: 18 November 2017 00:00
Search period end: 28 November 2017 00:00
Orbit: 404 x 417 km, 43.0° (Epoch: 07 September)

Date Brightness Start Highest point End Pass type
(mag) Time Alt. Az. Time Alt. Az. Time Alt. Az.
18 Nov ? 04:53:27 16° SE 04:53:27 16° SE 04:54:23 10° SE visible
18 Nov ? 06:26:27 10° WSW 06:28:10 14° SSW 06:29:55 10° S visible
19 Nov ? 05:37:38 17° SSW 05:37:38 17° SSW 05:39:34 10° SSE visible
